Time,TemperatureF,DewpointF,PressureIn,WindDirection,WindDirectionDegrees,WindSpeedMPH,WindSpeedGustMPH,Humidity,HourlyPrecipIn,Conditions,Clouds,dailyrainin,SoftwareType,DateUTC
2013-02-11 00:00:00,43.5,40.5,30.19,SSE,163,0.0,1.0,89,0.00,,,0.00,Wunderground v.1.15,2013-02-11 05:00:00,
2013-02-11 00:05:00,43.6,40.6,30.19,SSE,163,0.0,1.0,89,0.00,,,0.00,Wunderground v.1.15,2013-02-11 05:05:00,
2013-02-11 00:15:00,43.8,40.5,30.18,South,180,0.0,2.0,88,0.00,,,0.00,Wunderground v.1.15,2013-02-11 05:15:00,
2013-02-11 00:20:00,43.9,40.6,30.17,SSE,163,1.0,1.0,88,0.00,,,0.00,Wunderground v.1.15,2013-02-11 05:20:00,
2013-02-11 00:25:00,44.0,40.7,30.17,SSE,163,1.0,1.0,88,0.00,,,0.00,Wunderground v.1.15,2013-02-11 05:25:00,
2013-02-11 00:30:00,44.0,40.7,30.17,SSE,163,1.0,1.0,88,0.00,,,0.00,Wunderground v.1.15,2013-02-11 05:30:00,
2013-02-11 00:35:00,44.1,40.8,30.16,SSE,163,1.0,1.0,88,0.00,,,0.00,Wunderground v.1.15,2013-02-11 05:35:00,
2013-02-11 00:40:00,44.2,40.9,30.15,SSE,163,1.0,1.0,88,0.00,,,0.00,Wunderground v.1.15,2013-02-11 05:40:00,
2013-02-11 00:45:00,44.2,41.2,30.16,SSE,163,0.0,1.0,89,0.00,,,0.00,Wunderground v.1.15,2013-02-11 05:45:00,
2013-02-11 00:50:00,44.3,41.6,30.15,SSE,163,0.0,0.0,90,0.00,,,0.00,Wunderground v.1.15,2013-02-11 05:50:00,
2013-02-11 01:00:00,44.6,42.1,30.15,SSE,163,0.0,2.0,91,0.00,,,0.00,Wunderground v.1.15,2013-02-11 06:00:00,
2013-02-11 01:05:00,45.0,42.5,30.15,SSE,160,1.0,2.0,91,0.00,,,0.00,Wunderground v.1.15,2013-02-11 06:05:00,
2013-02-11 01:10:00,45.2,42.7,30.14,SSE,160,0.0,2.0,91,0.00,,,0.00,Wunderground v.1.15,2013-02-11 06:10:00,
2013-02-11 01:15:00,45.4,42.9,30.15,SSE,166,0.0,2.0,91,0.00,,,0.00,Wunderground v.1.15,2013-02-11 06:15:00,
2013-02-11 01:25:00,46.0,43.8,30.15,SSW,202,1.0,2.0,92,0.00,,,0.00,Wunderground v.1.15,2013-02-11 06:25:00,
2013-02-11 01:30:00,46.2,44.0,30.16,South,171,0.0,2.0,92,0.00,,,0.00,Wunderground v.1.15,2013-02-11 06:30:00,
2013-02-11 01:35:00,46.3,44.1,30.16,SSW,212,0.0,2.0,92,0.00,,,0.00,Wunderground v.1.15,2013-02-11 06:35:00,
2013-02-11 01:45:00,46.5,44.3,30.15,South,181,0.0,2.0,92,0.00,,,0.00,Wunderground v.1.15,2013-02-11 06:45:00,
2013-02-11 01:50:00,46.5,44.3,30.15,South,181,0.0,2.0,92,0.00,,,0.00,Wunderground v.1.15,2013-02-11 06:50:00,
2013-02-11 01:55:00,46.5,44.3,30.15,South,181,0.0,2.0,92,0.00,,,0.00,Wunderground v.1.15,2013-02-11 06:55:00,
2013-02-11 02:05:00,46.6,44.7,30.14,South,181,0.0,2.0,93,0.00,,,0.00,Wunderground v.1.15,2013-02-11 07:05:00,
2013-02-11 02:10:00,46.6,44.7,30.14,South,181,0.0,2.0,93,0.00,,,0.00,Wunderground v.1.15,2013-02-11 07:10:00,
2013-02-11 02:20:00,46.7,44.8,30.15,South,181,0.0,2.0,93,0.00,,,0.00,Wunderground v.1.15,2013-02-11 07:20:00,
2013-02-11 02:25:00,46.7,44.8,30.15,South,181,0.0,2.0,93,0.00,,,0.00,Wunderground v.1.15,2013-02-11 07:25:00,
2013-02-11 02:35:00,46.7,44.8,30.14,South,181,0.0,2.0,93,0.00,,,0.00,Wunderground v.1.15,2013-02-11 07:35:00,
2013-02-11 02:40:00,46.7,45.1,30.14,South,181,0.0,2.0,94,0.00,,,0.00,Wunderground v.1.15,2013-02-11 07:40:00,
2013-02-11 02:45:00,46.8,45.2,30.14,South,181,0.0,2.0,94,0.00,,,0.00,Wunderground v.1.15,2013-02-11 07:45:00,
2013-02-11 02:55:00,46.7,45.1,30.14,South,181,0.0,2.0,94,0.00,,,0.00,Wunderground v.1.15,2013-02-11 07:55:00,
2013-02-11 03:00:00,46.6,45.0,30.13,South,181,0.0,2.0,94,0.00,,,0.00,Wunderground v.1.15,2013-02-11 08:00:00,
2013-02-11 03:05:00,46.6,45.0,30.13,South,181,0.0,2.0,94,0.00,,,0.00,Wunderground v.1.15,2013-02-11 08:05:00,
2013-02-11 03:10:00,46.6,45.0,30.12,South,181,0.0,2.0,94,0.00,,,0.00,Wunderground v.1.15,2013-02-11 08:10:00,
2013-02-11 03:20:00,46.4,44.8,30.11,South,181,0.0,2.0,94,0.00,,,0.00,Wunderground v.1.15,2013-02-11 08:20:00,
2013-02-11 03:25:00,46.4,44.8,30.10,South,181,0.0,2.0,94,0.00,,,0.00,Wunderground v.1.15,2013-02-11 08:25:00,
2013-02-11 03:30:00,46.3,44.9,30.10,South,181,0.0,2.0,95,0.00,,,0.00,Wunderground v.1.15,2013-02-11 08:30:00,
2013-02-11 03:40:00,46.4,45.0,30.10,South,181,0.0,2.0,95,0.00,,,0.00,Wunderground v.1.15,2013-02-11 08:40:00,
2013-02-11 03:45:00,46.3,44.9,30.10,South,181,0.0,2.0,95,0.00,,,0.00,Wunderground v.1.15,2013-02-11 08:45:00,
2013-02-11 03:50:00,46.3,44.9,30.09,South,181,0.0,2.0,95,0.00,,,0.00,Wunderground v.1.15,2013-02-11 08:50:00,
2013-02-11 04:00:00,46.5,45.1,30.09,South,181,0.0,2.0,95,0.00,,,0.00,Wunderground v.1.15,2013-02-11 09:00:00,
2013-02-11 04:05:00,46.5,45.1,30.09,South,181,0.0,2.0,95,0.00,,,0.00,Wunderground v.1.15,2013-02-11 09:05:00,
2013-02-11 04:10:00,46.4,45.0,30.09,South,181,0.0,2.0,95,0.00,,,0.00,Wunderground v.1.15,2013-02-11 09:10:00,
2013-02-11 04:20:00,46.5,45.1,30.08,South,181,0.0,2.0,95,0.00,,,0.00,Wunderground v.1.15,2013-02-11 09:20:00,
2013-02-11 04:25:00,46.5,45.1,30.08,South,181,0.0,2.0,95,0.00,,,0.00,Wunderground v.1.15,2013-02-11 09:25:00,
2013-02-11 04:30:00,46.6,45.5,30.08,South,181,0.0,2.0,96,0.00,,,0.00,Wunderground v.1.15,2013-02-11 09:30:00,
2013-02-11 04:40:00,46.6,45.5,30.09,South,181,0.0,2.0,96,0.00,,,0.00,Wunderground v.1.15,2013-02-11 09:40:00,
2013-02-11 04:45:00,46.7,45.6,30.09,South,181,0.0,2.0,96,0.00,,,0.01,Wunderground v.1.15,2013-02-11 09:45:00,
2013-02-11 04:50:00,46.7,45.6,30.08,South,181,0.0,2.0,96,0.00,,,0.01,Wunderground v.1.15,2013-02-11 09:50:00,
2013-02-11 04:55:00,46.7,45.6,30.08,South,181,0.0,2.0,96,0.00,,,0.01,Wunderground v.1.15,2013-02-11 09:55:00,
2013-02-11 05:05:00,46.5,45.4,30.09,South,181,0.0,2.0,96,0.00,,,0.01,Wunderground v.1.15,2013-02-11 10:05:00,
2013-02-11 05:10:00,46.5,45.4,30.09,South,181,0.0,2.0,96,0.00,,,0.01,Wunderground v.1.15,2013-02-11 10:10:00,
2013-02-11 05:20:00,46.4,45.3,30.09,West,267,0.0,2.0,96,0.00,,,0.01,Wunderground v.1.15,2013-02-11 10:20:00,
2013-02-11 05:25:00,46.4,45.3,30.09,West,267,0.0,2.0,96,0.00,,,0.01,Wunderground v.1.15,2013-02-11 10:25:00,
2013-02-11 05:30:00,46.4,45.3,30.09,West,267,0.0,2.0,96,0.00,,,0.01,Wunderground v.1.15,2013-02-11 10:30:00,
2013-02-11 05:35:00,46.3,45.2,30.08,West,267,0.0,2.0,96,0.00,,,0.02,Wunderground v.1.15,2013-02-11 10:35:00,
2013-02-11 05:45:00,46.4,45.3,30.08,West,267,0.0,2.0,96,0.07,,,0.03,Wunderground v.1.15,2013-02-11 10:45:00,
2013-02-11 05:50:00,46.4,45.3,30.08,West,267,0.0,2.0,96,0.08,,,0.04,Wunderground v.1.15,2013-02-11 10:50:00,
2013-02-11 05:55:00,46.4,45.3,30.08,West,267,0.0,2.0,96,0.06,,,0.04,Wunderground v.1.15,2013-02-11 10:55:00,
2013-02-11 06:05:00,46.4,45.3,30.09,West,267,0.0,2.0,96,0.00,,,0.04,Wunderground v.1.15,2013-02-11 11:05:00,
2013-02-11 06:10:00,46.3,45.2,30.09,West,267,0.0,2.0,96,0.00,,,0.05,Wunderground v.1.15,2013-02-11 11:10:00,
2013-02-11 06:15:00,46.3,45.2,30.08,West,267,0.0,2.0,96,0.00,,,0.05,Wunderground v.1.15,2013-02-11 11:15:00,
2013-02-11 06:25:00,46.2,45.1,30.09,West,267,0.0,2.0,96,0.04,,,0.06,Wunderground v.1.15,2013-02-11 11:25:00,
2013-02-11 06:30:00,46.1,45.0,30.09,West,267,0.0,2.0,96,0.04,,,0.06,Wunderground v.1.15,2013-02-11 11:30:00,
2013-02-11 06:35:00,46.0,44.9,30.09,West,267,0.0,2.0,96,0.05,,,0.07,Wunderground v.1.15,2013-02-11 11:35:00,
2013-02-11 06:45:00,45.9,44.8,30.09,West,267,0.0,2.0,96,0.09,,,0.08,Wunderground v.1.15,2013-02-11 11:45:00,
2013-02-11 06:50:00,45.8,44.7,30.09,West,267,0.0,2.0,96,0.07,,,0.08,Wunderground v.1.15,2013-02-11 11:50:00,
2013-02-11 06:55:00,45.7,44.6,30.09,West,267,0.0,2.0,96,0.05,,,0.09,Wunderground v.1.15,2013-02-11 11:55:00,
2013-02-11 07:00:00,45.7,44.6,30.09,West,267,0.0,2.0,96,0.09,,,0.10,Wunderground v.1.15,2013-02-11 12:00:00,
2013-02-11 07:10:00,45.5,44.4,30.08,West,267,0.0,2.0,96,0.05,,,0.10,Wunderground v.1.15,2013-02-11 12:10:00,
2013-02-11 07:15:00,45.4,44.3,30.08,West,267,0.0,2.0,96,0.04,,,0.10,Wunderground v.1.15,2013-02-11 12:15:00,
2013-02-11 07:20:00,45.4,44.3,30.08,West,267,0.0,2.0,96,0.00,,,0.10,Wunderground v.1.15,2013-02-11 12:20:00,
2013-02-11 07:30:00,45.2,44.1,30.08,West,267,0.0,2.0,96,0.00,,,0.11,Wunderground v.1.15,2013-02-11 12:30:00,
2013-02-11 07:35:00,45.1,44.0,30.07,West,267,0.0,2.0,96,0.00,,,0.11,Wunderground v.1.15,2013-02-11 12:35:00,
2013-02-11 07:40:00,45.1,44.0,30.07,West,267,0.0,2.0,96,0.00,,,0.11,Wunderground v.1.15,2013-02-11 12:40:00,
2013-02-11 07:50:00,45.1,44.0,30.05,West,260,0.0,2.0,96,0.00,,,0.11,Wunderground v.1.15,2013-02-11 12:50:00,
2013-02-11 07:55:00,45.2,44.4,30.04,South,184,0.0,2.0,97,0.00,,,0.11,Wunderground v.1.15,2013-02-11 12:55:00,
2013-02-11 08:00:00,45.2,44.4,30.03,South,184,0.0,2.0,97,0.00,,,0.11,Wunderground v.1.15,2013-02-11 13:00:00,
2013-02-11 08:05:00,45.3,44.5,30.04,South,184,0.0,2.0,97,0.00,,,0.11,Wunderground v.1.15,2013-02-11 13:05:00,
2013-02-11 08:15:00,45.5,44.7,30.05,South,184,0.0,2.0,97,0.00,,,0.11,Wunderground v.1.15,2013-02-11 13:15:00,
2013-02-11 08:20:00,45.7,44.9,30.05,South,184,0.0,2.0,97,0.00,,,0.11,Wunderground v.1.15,2013-02-11 13:20:00,
2013-02-11 08:25:00,45.8,45.0,30.05,South,184,0.0,2.0,97,0.00,,,0.11,Wunderground v.1.15,2013-02-11 13:25:00,
2013-02-11 08:35:00,45.9,45.1,30.05,South,184,0.0,2.0,97,0.00,,,0.11,Wunderground v.1.15,2013-02-11 13:35:00,
2013-02-11 08:40:00,46.0,45.2,30.05,South,184,0.0,2.0,97,0.00,,,0.11,Wunderground v.1.15,2013-02-11 13:40:00,
2013-02-11 08:45:00,46.1,45.3,30.05,South,184,0.0,2.0,97,0.00,,,0.11,Wunderground v.1.15,2013-02-11 13:45:00,
2013-02-11 08:50:00,46.2,45.4,30.05,South,184,0.0,2.0,97,0.00,,,0.11,Wunderground v.1.15,2013-02-11 13:50:00,
2013-02-11 09:00:00,46.3,45.5,30.05,WNW,296,0.0,2.0,97,0.00,,,0.11,Wunderground v.1.15,2013-02-11 14:00:00,
2013-02-11 09:05:00,46.5,45.7,30.06,WNW,296,0.0,2.0,97,0.00,,,0.11,Wunderground v.1.15,2013-02-11 14:05:00,
2013-02-11 09:15:00,46.7,45.9,30.05,WNW,296,0.0,2.0,97,0.00,,,0.11,Wunderground v.1.15,2013-02-11 14:15:00,
2013-02-11 09:20:00,46.8,46.0,30.06,WNW,296,0.0,2.0,97,0.00,,,0.11,Wunderground v.1.15,2013-02-11 14:20:00,
2013-02-11 09:25:00,46.9,46.1,30.06,WNW,296,0.0,2.0,97,0.00,,,0.11,Wunderground v.1.15,2013-02-11 14:25:00,
2013-02-11 09:35:00,47.1,46.3,30.06,WNW,296,0.0,2.0,97,0.00,,,0.11,Wunderground v.1.15,2013-02-11 14:35:00,
2013-02-11 09:40:00,47.1,46.3,30.06,WNW,296,0.0,2.0,97,0.00,,,0.11,Wunderground v.1.15,2013-02-11 14:40:00,
2013-02-11 09:45:00,47.1,46.3,30.06,WNW,296,0.0,2.0,97,0.00,,,0.11,Wunderground v.1.15,2013-02-11 14:45:00,
2013-02-11 09:50:00,47.2,46.4,30.06,WNW,296,0.0,2.0,97,0.00,,,0.11,Wunderground v.1.15,2013-02-11 14:50:00,
2013-02-11 10:00:00,47.3,46.5,30.06,WNW,296,0.0,2.0,97,0.00,,,0.11,Wunderground v.1.15,2013-02-11 15:00:00,
2013-02-11 10:05:00,47.6,46.8,30.05,WNW,296,0.0,2.0,97,0.00,,,0.11,Wunderground v.1.15,2013-02-11 15:05:00,
2013-02-11 10:10:00,48.0,47.2,30.05,WNW,296,0.0,2.0,97,0.00,,,0.11,Wunderground v.1.15,2013-02-11 15:10:00,
2013-02-11 10:20:00,49.3,48.8,30.04,SW,230,0.0,2.0,98,0.00,,,0.11,Wunderground v.1.15,2013-02-11 15:20:00,
2013-02-11 10:25:00,49.5,48.7,30.04,SW,232,0.0,2.0,97,0.00,,,0.11,Wunderground v.1.15,2013-02-11 15:25:00,
2013-02-11 10:30:00,49.6,48.8,30.04,ESE,121,0.0,2.0,97,0.00,,,0.11,Wunderground v.1.15,2013-02-11 15:30:00,
2013-02-11 10:35:00,49.8,49.3,30.03,ESE,121,0.0,2.0,98,0.00,,,0.11,Wunderground v.1.15,2013-02-11 15:35:00,
2013-02-11 10:45:00,50.0,49.5,30.03,South,187,0.0,2.0,98,0.00,,,0.11,Wunderground v.1.15,2013-02-11 15:45:00,
2013-02-11 10:50:00,50.2,49.4,30.03,WSW,241,0.0,2.0,97,0.00,,,0.11,Wunderground v.1.15,2013-02-11 15:50:00,
2013-02-11 11:00:00,50.5,50.0,30.03,WSW,248,1.0,1.0,98,0.00,,,0.11,Wunderground v.1.15,2013-02-11 16:00:00,
2013-02-11 11:05:00,50.7,49.9,30.03,SSW,205,1.0,2.0,97,0.00,,,0.11,Wunderground v.1.15,2013-02-11 16:05:00,
2013-02-11 11:10:00,50.8,50.0,30.02,West,259,1.0,1.0,97,0.00,,,0.11,Wunderground v.1.15,2013-02-11 16:10:00,
2013-02-11 11:15:00,51.0,50.5,30.02,West,261,0.0,2.0,98,0.00,,,0.11,Wunderground v.1.15,2013-02-11 16:15:00,
2013-02-11 11:25:00,51.3,50.5,30.02,WNW,290,1.0,3.0,97,0.00,,,0.11,Wunderground v.1.15,2013-02-11 16:25:00,
2013-02-11 11:30:00,51.5,50.7,30.01,WSW,244,0.0,2.0,97,0.00,,,0.11,Wunderground v.1.15,2013-02-11 16:30:00,
2013-02-11 11:35:00,51.7,51.2,30.01,SW,232,0.0,2.0,98,0.00,,,0.11,Wunderground v.1.15,2013-02-11 16:35:00,
2013-02-11 11:45:00,52.3,51.8,30.01,SW,226,0.0,2.0,98,0.00,,,0.11,Wunderground v.1.15,2013-02-11 16:45:00,
2013-02-11 11:50:00,52.7,52.2,30.01,WSW,241,0.0,2.0,98,0.00,,,0.11,Wunderground v.1.15,2013-02-11 16:50:00,
2013-02-11 11:55:00,53.0,52.5,30.01,WSW,241,0.0,2.0,98,0.00,,,0.11,Wunderground v.1.15,2013-02-11 16:55:00,
2013-02-11 12:05:00,53.5,52.9,30.00,SSW,211,0.0,2.0,98,0.00,,,0.11,Wunderground v.1.15,2013-02-11 17:05:00,
2013-02-11 12:10:00,53.9,53.3,30.00,SW,216,0.0,2.0,98,0.00,,,0.11,Wunderground v.1.15,2013-02-11 17:10:00,
2013-02-11 12:15:00,54.2,53.6,30.00,SSW,203,1.0,2.0,98,0.00,,,0.11,Wunderground v.1.15,2013-02-11 17:15:00,
2013-02-11 12:20:00,54.7,54.1,30.00,SSW,208,1.0,1.0,98,0.00,,,0.11,Wunderground v.1.15,2013-02-11 17:20:00,
2013-02-11 12:30:00,55.3,54.7,30.00,SW,214,1.0,2.0,98,0.00,,,0.11,Wunderground v.1.15,2013-02-11 17:30:00,
2013-02-11 12:35:00,55.5,54.9,30.00,South,181,2.0,2.0,98,0.00,,,0.11,Wunderground v.1.15,2013-02-11 17:35:00,
2013-02-11 12:45:00,55.7,55.1,30.00,SSW,212,2.0,2.0,98,0.00,,,0.11,Wunderground v.1.15,2013-02-11 17:45:00,
2013-02-11 12:50:00,55.7,55.1,30.00,SW,234,2.0,8.0,98,0.00,,,0.11,Wunderground v.1.15,2013-02-11 17:50:00,
2013-02-11 12:55:00,55.7,55.1,30.00,SW,221,2.0,8.0,98,0.00,,,0.11,Wunderground v.1.15,2013-02-11 17:55:00,
2013-02-11 13:00:00,55.9,55.3,29.99,WSW,242,2.0,2.0,98,0.00,,,0.11,Wunderground v.1.15,2013-02-11 18:00:00,
2013-02-11 13:10:00,56.0,55.4,29.98,SSW,204,1.0,1.0,98,0.00,,,0.11,Wunderground v.1.15,2013-02-11 18:10:00,
2013-02-11 13:15:00,56.0,55.4,29.97,SSW,202,1.0,2.0,98,0.00,,,0.11,Wunderground v.1.15,2013-02-11 18:15:00,
2013-02-11 13:25:00,56.1,55.3,29.96,SW,223,2.0,2.0,97,0.00,,,0.11,Wunderground v.1.15,2013-02-11 18:25:00,
2013-02-11 13:30:00,56.2,55.4,29.95,SSW,210,1.0,1.0,97,0.00,,,0.11,Wunderground v.1.15,2013-02-11 18:30:00,
2013-02-11 13:35:00,56.2,55.4,29.95,SSW,211,1.0,2.0,97,0.00,,,0.11,Wunderground v.1.15,2013-02-11 18:35:00,
2013-02-11 13:40:00,56.2,55.4,29.95,SW,229,1.0,6.0,97,0.00,,,0.11,Wunderground v.1.15,2013-02-11 18:40:00,
2013-02-11 13:50:00,56.4,55.8,29.95,SSW,211,1.0,1.0,98,0.00,,,0.11,Wunderground v.1.15,2013-02-11 18:50:00,
2013-02-11 13:55:00,56.6,55.8,29.95,SW,222,1.0,2.0,97,0.00,,,0.11,Wunderground v.1.15,2013-02-11 18:55:00,
2013-02-11 14:05:00,56.6,55.8,29.95,SSW,202,1.0,5.0,97,0.00,,,0.11,Wunderground v.1.15,2013-02-11 19:05:00,
2013-02-11 14:10:00,56.6,55.8,29.94,SW,217,1.0,1.0,97,0.00,,,0.11,Wunderground v.1.15,2013-02-11 19:10:00,
2013-02-11 14:15:00,56.5,55.7,29.95,West,271,1.0,2.0,97,0.00,,,0.11,Wunderground v.1.15,2013-02-11 19:15:00,
2013-02-11 14:20:00,56.6,55.8,29.95,WNW,292,1.0,1.0,97,0.00,,,0.11,Wunderground v.1.15,2013-02-11 19:20:00,
2013-02-11 14:30:00,56.5,55.7,29.96,SW,217,2.0,2.0,97,0.00,,,0.11,Wunderground v.1.15,2013-02-11 19:30:00,
2013-02-11 14:35:00,56.6,55.8,29.96,WSW,253,2.0,2.0,97,0.00,,,0.11,Wunderground v.1.15,2013-02-11 19:35:00,
2013-02-11 14:40:00,56.6,55.8,29.96,SW,217,1.0,2.0,97,0.00,,,0.11,Wunderground v.1.15,2013-02-11 19:40:00,
2013-02-11 14:45:00,56.7,55.9,29.97,WSW,250,1.0,2.0,97,0.00,,,0.11,Wunderground v.1.15,2013-02-11 19:45:00,
2013-02-11 14:55:00,56.7,55.9,29.96,SSW,202,2.0,2.0,97,0.00,,,0.11,Wunderground v.1.15,2013-02-11 19:55:00,
2013-02-11 15:00:00,56.8,56.0,29.95,SSW,198,2.0,3.0,97,0.00,,,0.11,Wunderground v.1.15,2013-02-11 20:00:00,
2013-02-11 15:05:00,57.1,56.3,29.95,SW,215,2.0,3.0,97,0.00,,,0.11,Wunderground v.1.15,2013-02-11 20:05:00,
2013-02-11 15:15:00,57.6,56.8,29.93,South,184,2.0,2.0,97,0.00,,,0.11,Wunderground v.1.15,2013-02-11 20:15:00,
2013-02-11 15:20:00,57.8,57.0,29.94,South,186,3.0,3.0,97,0.00,,,0.11,Wunderground v.1.15,2013-02-11 20:20:00,
2013-02-11 15:25:00,58.0,56.9,29.94,West,261,3.0,8.0,96,0.00,,,0.11,Wunderground v.1.15,2013-02-11 20:25:00,
2013-02-11 15:35:00,57.8,56.4,29.94,West,269,3.0,5.0,95,0.00,,,0.11,Wunderground v.1.15,2013-02-11 20:35:00,
2013-02-11 15:40:00,57.4,55.7,29.94,WNW,289,3.0,3.0,94,0.00,,,0.11,Wunderground v.1.15,2013-02-11 20:40:00,
2013-02-11 15:45:00,57.0,55.6,29.93,WSW,243,2.0,5.0,95,0.00,,,0.11,Wunderground v.1.15,2013-02-11 20:45:00,
2013-02-11 15:55:00,56.6,55.2,29.94,WNW,286,3.0,3.0,95,0.00,,,0.11,Wunderground v.1.15,2013-02-11 20:55:00,
2013-02-11 16:00:00,56.4,55.0,29.93,SSW,194,2.0,3.0,95,0.00,,,0.11,Wunderground v.1.15,2013-02-11 21:00:00,
2013-02-11 16:05:00,56.4,55.0,29.93,SW,235,2.0,3.0,95,0.00,,,0.11,Wunderground v.1.15,2013-02-11 21:05:00,
2013-02-11 16:15:00,56.6,55.5,29.93,SW,221,1.0,2.0,96,0.00,,,0.11,Wunderground v.1.15,2013-02-11 21:15:00,
2013-02-11 16:20:00,56.8,55.7,29.93,West,268,2.0,2.0,96,0.00,,,0.11,Wunderground v.1.15,2013-02-11 21:20:00,
2013-02-11 16:25:00,56.9,55.8,29.93,West,277,2.0,2.0,96,0.00,,,0.11,Wunderground v.1.15,2013-02-11 21:25:00,
2013-02-11 16:35:00,57.2,55.8,29.94,NW,314,2.0,3.0,95,0.00,,,0.11,Wunderground v.1.15,2013-02-11 21:35:00,
2013-02-11 16:40:00,57.2,55.8,29.94,NW,311,2.0,2.0,95,0.00,,,0.11,Wunderground v.1.15,2013-02-11 21:40:00,
2013-02-11 16:45:00,57.3,55.9,29.95,West,275,2.0,3.0,95,0.00,,,0.11,Wunderground v.1.15,2013-02-11 21:45:00,
2013-02-11 16:50:00,57.5,55.8,29.95,WNW,298,3.0,3.0,94,0.00,,,0.11,Wunderground v.1.15,2013-02-11 21:50:00,
2013-02-11 17:00:00,57.8,55.8,29.94,WSW,246,4.0,4.0,93,0.00,,,0.11,Wunderground v.1.15,2013-02-11 22:00:00,
2013-02-11 17:05:00,57.9,55.9,29.95,SW,236,3.0,6.0,93,0.00,,,0.11,Wunderground v.1.15,2013-02-11 22:05:00,
2013-02-11 17:10:00,58.0,56.0,29.94,SSE,153,3.0,3.0,93,0.00,,,0.11,Wunderground v.1.15,2013-02-11 22:10:00,
2013-02-11 17:20:00,58.1,55.8,29.94,WSW,256,3.0,10.0,92,0.00,,,0.11,Wunderground v.1.15,2013-02-11 22:20:00,
2013-02-11 17:25:00,58.0,55.7,29.94,West,275,3.0,10.0,92,0.00,,,0.11,Wunderground v.1.15,2013-02-11 22:25:00,
2013-02-11 17:30:00,58.0,55.7,29.94,SW,223,3.0,5.0,92,0.00,,,0.11,Wunderground v.1.15,2013-02-11 22:30:00,
2013-02-11 17:40:00,57.9,55.6,29.95,WSW,252,3.0,3.0,92,0.00,,,0.12,Wunderground v.1.15,2013-02-11 22:40:00,
2013-02-11 17:50:00,57.9,55.6,29.95,SW,223,3.0,3.0,92,0.00,,,0.12,Wunderground v.1.15,2013-02-11 22:50:00,
2013-02-11 17:55:00,57.8,55.5,29.94,SW,228,2.0,3.0,92,0.00,,,0.12,Wunderground v.1.15,2013-02-11 22:55:00,
2013-02-11 18:00:00,57.7,55.7,29.95,NW,307,2.0,2.0,93,0.00,,,0.12,Wunderground v.1.15,2013-02-11 23:00:00,
2013-02-11 18:05:00,57.6,55.6,29.95,West,260,2.0,2.0,93,0.00,,,0.12,Wunderground v.1.15,2013-02-11 23:05:00,
2013-02-11 18:15:00,57.6,55.6,29.95,WNW,299,2.0,4.0,93,0.00,,,0.12,Wunderground v.1.15,2013-02-11 23:15:00,
2013-02-11 18:20:00,57.6,55.3,29.95,SE,140,3.0,3.0,92,0.00,,,0.12,Wunderground v.1.15,2013-02-11 23:20:00,
2013-02-11 18:30:00,57.5,55.5,29.94,WNW,283,1.0,2.0,93,0.00,,,0.12,Wunderground v.1.15,2013-02-11 23:30:00,
2013-02-11 18:35:00,57.4,55.4,29.94,SW,229,1.0,3.0,93,0.00,,,0.12,Wunderground v.1.15,2013-02-11 23:35:00,
2013-02-11 18:40:00,57.3,55.3,29.95,SSW,195,1.0,1.0,93,0.00,,,0.12,Wunderground v.1.15,2013-02-11 23:40:00,
2013-02-11 18:45:00,57.3,55.0,29.95,SSW,203,2.0,2.0,92,0.00,,,0.12,Wunderground v.1.15,2013-02-11 23:45:00,
2013-02-11 18:55:00,57.1,55.1,29.95,SSW,211,2.0,2.0,93,0.00,,,0.12,Wunderground v.1.15,2013-02-11 23:55:00,
2013-02-11 19:00:00,57.1,55.1,29.95,WSW,252,1.0,4.0,93,0.00,,,0.12,Wunderground v.1.15,2013-02-12 00:00:00,
2013-02-11 19:05:00,57.0,55.0,29.95,SW,229,1.0,4.0,93,0.00,,,0.12,Wunderground v.1.15,2013-02-12 00:05:00,
2013-02-11 19:10:00,56.9,54.9,29.96,WSW,253,1.0,1.0,93,0.00,,,0.12,Wunderground v.1.15,2013-02-12 00:10:00,
2013-02-11 19:20:00,56.7,55.0,29.95,WSW,249,1.0,1.0,94,0.00,,,0.12,Wunderground v.1.15,2013-02-12 00:20:00,
2013-02-11 19:25:00,56.6,54.9,29.96,SW,230,1.0,3.0,94,0.00,,,0.12,Wunderground v.1.15,2013-02-12 00:25:00,
2013-02-11 19:35:00,56.6,54.9,29.95,SSW,210,1.0,2.0,94,0.00,,,0.12,Wunderground v.1.15,2013-02-12 00:35:00,
2013-02-11 19:40:00,56.6,54.9,29.95,ESE,121,1.0,1.0,94,0.00,,,0.12,Wunderground v.1.15,2013-02-12 00:40:00,
2013-02-11 19:45:00,56.5,54.8,29.95,WSW,242,1.0,6.0,94,0.00,,,0.12,Wunderground v.1.15,2013-02-12 00:45:00,
2013-02-11 19:55:00,56.5,54.5,29.96,SW,217,2.0,3.0,93,0.00,,,0.12,Wunderground v.1.15,2013-02-12 00:55:00,
2013-02-11 20:00:00,56.4,54.4,29.96,WSW,257,1.0,1.0,93,0.00,,,0.12,Wunderground v.1.15,2013-02-12 01:00:00,
2013-02-11 20:05:00,56.2,54.2,29.96,WSW,258,0.0,2.0,93,0.00,,,0.12,Wunderground v.1.15,2013-02-12 01:05:00,
2013-02-11 20:15:00,56.1,54.4,29.96,South,183,1.0,2.0,94,0.00,,,0.12,Wunderground v.1.15,2013-02-12 01:15:00,
2013-02-11 20:20:00,56.0,54.3,29.96,SW,221,1.0,1.0,94,0.00,,,0.12,Wunderground v.1.15,2013-02-12 01:20:00,
2013-02-11 20:25:00,55.9,54.2,29.96,WSW,241,1.0,3.0,94,0.00,,,0.12,Wunderground v.1.15,2013-02-12 01:25:00,
2013-02-11 20:30:00,55.9,54.2,29.96,WSW,243,1.0,1.0,94,0.00,,,0.12,Wunderground v.1.15,2013-02-12 01:30:00,
2013-02-11 20:40:00,55.7,54.0,29.95,SW,223,0.0,2.0,94,0.00,,,0.12,Wunderground v.1.15,2013-02-12 01:40:00,
2013-02-11 20:45:00,55.6,53.9,29.95,WSW,249,0.0,4.0,94,0.00,,,0.12,Wunderground v.1.15,2013-02-12 01:45:00,
2013-02-11 20:50:00,55.4,53.7,29.95,SSW,196,1.0,2.0,94,0.00,,,0.12,Wunderground v.1.15,2013-02-12 01:50:00,
2013-02-11 21:00:00,55.3,53.6,29.95,South,189,1.0,1.0,94,0.00,,,0.12,Wunderground v.1.15,2013-02-12 02:00:00,
2013-02-11 21:05:00,55.3,53.9,29.95,SSW,211,1.0,2.0,95,0.00,,,0.12,Wunderground v.1.15,2013-02-12 02:05:00,
2013-02-11 21:10:00,55.2,53.5,29.95,SW,230,2.0,2.0,94,0.00,,,0.12,Wunderground v.1.15,2013-02-12 02:10:00,
2013-02-11 21:20:00,54.9,53.5,29.95,WSW,237,0.0,4.0,95,0.00,,,0.12,Wunderground v.1.15,2013-02-12 02:20:00,
2013-02-11 21:25:00,54.9,53.2,29.95,SSW,198,1.0,4.0,94,0.00,,,0.12,Wunderground v.1.15,2013-02-12 02:25:00,
2013-02-11 21:30:00,54.8,53.4,29.95,SSW,212,1.0,1.0,95,0.00,,,0.12,Wunderground v.1.15,2013-02-12 02:30:00,
2013-02-11 21:40:00,54.7,53.0,29.95,SSW,194,1.0,2.0,94,0.00,,,0.12,Wunderground v.1.15,2013-02-12 02:40:00,
2013-02-11 21:45:00,54.6,53.2,29.95,South,175,1.0,2.0,95,0.00,,,0.12,Wunderground v.1.15,2013-02-12 02:45:00,
2013-02-11 21:50:00,54.5,53.1,29.95,SW,229,1.0,2.0,95,0.00,,,0.12,Wunderground v.1.15,2013-02-12 02:50:00,
2013-02-11 22:00:00,54.4,53.0,29.95,South,169,1.0,1.0,95,0.00,,,0.12,Wunderground v.1.15,2013-02-12 03:00:00,
2013-02-11 22:05:00,54.4,53.0,29.95,WSW,244,1.0,2.0,95,0.00,,,0.12,Wunderground v.1.15,2013-02-12 03:05:00,
2013-02-11 22:10:00,54.4,53.0,29.95,SW,231,1.0,1.0,95,0.00,,,0.12,Wunderground v.1.15,2013-02-12 03:10:00,
2013-02-11 22:15:00,54.3,52.6,29.95,SW,230,1.0,2.0,94,0.00,,,0.12,Wunderground v.1.15,2013-02-12 03:15:00,
2013-02-11 22:25:00,54.0,52.3,29.95,SW,219,1.0,2.0,94,0.00,,,0.12,Wunderground v.1.15,2013-02-12 03:25:00,
2013-02-11 22:30:00,53.9,52.2,29.95,SW,234,0.0,2.0,94,0.00,,,0.12,Wunderground v.1.15,2013-02-12 03:30:00,
2013-02-11 22:35:00,53.9,52.5,29.95,NW,309,1.0,2.0,95,0.00,,,0.12,Wunderground v.1.15,2013-02-12 03:35:00,
2013-02-11 22:45:00,53.7,52.3,29.95,SSW,212,1.0,2.0,95,0.00,,,0.12,Wunderground v.1.15,2013-02-12 03:45:00,
2013-02-11 22:50:00,53.8,52.4,29.96,NNW,343,1.0,1.0,95,0.00,,,0.12,Wunderground v.1.15,2013-02-12 03:50:00,
2013-02-11 22:55:00,53.7,52.0,29.95,South,170,1.0,2.0,94,0.00,,,0.12,Wunderground v.1.15,2013-02-12 03:55:00,
2013-02-11 23:05:00,53.6,51.9,29.95,WSW,258,1.0,2.0,94,0.00,,,0.12,Wunderground v.1.15,2013-02-12 04:05:00,
2013-02-11 23:10:00,53.5,51.8,29.95,WSW,243,1.0,1.0,94,0.00,,,0.12,Wunderground v.1.15,2013-02-12 04:10:00,
2013-02-11 23:15:00,53.3,51.9,29.95,SSW,197,0.0,6.0,95,0.00,,,0.12,Wunderground v.1.15,2013-02-12 04:15:00,
2013-02-11 23:25:00,53.3,51.9,29.95,WSW,252,1.0,3.0,95,0.00,,,0.12,Wunderground v.1.15,2013-02-12 04:25:00,
2013-02-11 23:30:00,53.3,51.9,29.95,SSW,204,1.0,1.0,95,0.00,,,0.12,Wunderground v.1.15,2013-02-12 04:30:00,
2013-02-11 23:35:00,53.3,51.9,29.95,WSW,244,1.0,2.0,95,0.00,,,0.12,Wunderground v.1.15,2013-02-12 04:35:00,
2013-02-11 23:40:00,53.2,51.8,29.95,West,261,1.0,1.0,95,0.00,,,0.12,Wunderground v.1.15,2013-02-12 04:40:00,
2013-02-11 23:50:00,53.1,51.7,29.95,WSW,254,1.0,2.0,95,0.00,,,0.12,Wunderground v.1.15,2013-02-12 04:50:00,
2013-02-11 23:55:00,53.0,51.6,29.95,West,272,0.0,2.0,95,0.00,,,0.12,Wunderground v.1.15,2013-02-12 04:55:00,